Time,TemperatureF,DewpointF,PressureIn,WindDirection,WindDirectionDegrees,WindSpeedMPH,WindSpeedGustMPH,Humidity,HourlyPrecipIn,Conditions,Clouds,dailyrainin,SoftwareType,DateUTC
2013-04-07 00:03:00,43.0,35.0,30.39,South,187,7.0,12.0,73,0.00,,,-99.99,,2013-04-07 04:03:00,
2013-04-07 00:32:00,43.0,36.0,30.38,South,180,9.0,15.0,75,0.00,,,-99.99,,2013-04-07 04:32:00,
2013-04-07 00:43:00,43.0,36.0,30.38,South,180,9.0,15.0,75,0.00,,,-99.99,,2013-04-07 04:43:00,
2013-04-07 00:53:00,42.0,35.0,30.38,South,191,7.0,13.0,76,0.00,,,-99.99,,2013-04-07 04:53:00,
2013-04-07 01:02:00,42.0,35.0,30.38,South,190,9.0,11.0,76,0.00,,,-99.99,,2013-04-07 05:02:00,
2013-04-07 01:10:00,42.0,35.0,30.39,SE,143,6.0,10.0,77,0.00,,,-99.99,,2013-04-07 05:10:00,
2013-04-07 01:12:00,42.0,35.0,30.38,South,190,9.0,11.0,76,0.00,,,-99.99,,2013-04-07 05:12:00,
2013-04-07 01:23:00,42.0,35.0,30.38,South,190,9.0,11.0,76,0.00,,,-99.99,,2013-04-07 05:23:00,
2013-04-07 01:33:00,42.0,35.0,30.39,SE,143,6.0,10.0,77,0.00,,,-99.99,,2013-04-07 05:33:00,
2013-04-07 01:43:00,42.0,35.0,30.39,SE,143,6.0,10.0,77,0.00,,,-99.99,,2013-04-07 05:43:00,
2013-04-07 01:53:00,42.0,35.0,30.39,SE,143,6.0,10.0,77,0.00,,,-99.99,,2013-04-07 05:53:00,
2013-04-07 02:02:00,42.0,35.0,30.39,SE,143,6.0,10.0,77,0.00,,,-99.99,,2013-04-07 06:02:00,
2013-04-07 02:53:00,41.0,36.0,30.37,South,170,8.0,8.0,82,0.00,,,-99.99,,2013-04-07 06:53:00,
2013-04-07 03:02:00,41.0,36.0,30.37,South,170,8.0,8.0,82,0.00,,,-99.99,,2013-04-07 07:02:00,
2013-04-07 03:12:00,41.0,36.0,30.37,South,170,8.0,8.0,82,0.00,,,-99.99,,2013-04-07 07:12:00,
2013-04-07 03:22:00,41.0,36.0,30.37,South,170,8.0,8.0,82,0.00,,,-99.99,,2013-04-07 07:22:00,
2013-04-07 03:32:00,40.0,36.0,30.36,WSW,243,6.0,9.0,85,0.00,,,-99.99,,2013-04-07 07:32:00,
2013-04-07 03:42:00,40.0,36.0,30.36,WSW,243,6.0,9.0,85,0.00,,,-99.99,,2013-04-07 07:42:00,
2013-04-07 03:52:00,40.0,36.0,30.36,WSW,243,6.0,9.0,85,0.00,,,-99.99,,2013-04-07 07:52:00,
2013-04-07 04:02:00,39.0,35.0,30.35,West,270,3.0,9.0,86,0.00,,,-99.99,,2013-04-07 08:02:00,
2013-04-07 04:12:00,39.0,35.0,30.35,WNW,284,5.0,9.0,86,0.00,,,-99.99,,2013-04-07 08:12:00,
2013-04-07 04:22:00,39.0,35.0,30.35,WNW,284,5.0,9.0,86,0.00,,,-99.99,,2013-04-07 08:22:00,
2013-04-07 04:33:00,40.0,36.0,30.35,NW,312,9.0,9.0,85,0.00,,,-99.99,,2013-04-07 08:33:00,
2013-04-07 04:42:00,40.0,36.0,30.35,NW,312,9.0,9.0,85,0.00,,,-99.99,,2013-04-07 08:42:00,
2013-04-07 04:52:00,40.0,36.0,30.35,NW,312,9.0,9.0,85,0.00,,,-99.99,,2013-04-07 08:52:00,
2013-04-07 05:02:00,40.0,36.0,30.35,West,262,6.0,8.0,84,0.00,,,-99.99,,2013-04-07 09:02:00,
2013-04-07 05:12:00,40.0,36.0,30.35,West,262,6.0,8.0,84,0.00,,,-99.99,,2013-04-07 09:12:00,
2013-04-07 05:23:00,40.0,36.0,30.35,WSW,255,5.0,9.0,84,0.00,,,-99.99,,2013-04-07 09:23:00,
2013-04-07 05:33:00,40.0,36.0,30.35,WSW,255,5.0,9.0,84,0.00,,,-99.99,,2013-04-07 09:33:00,
2013-04-07 05:43:00,40.0,36.0,30.35,WSW,255,5.0,9.0,84,0.00,,,-99.99,,2013-04-07 09:43:00,
2013-04-07 05:54:00,40.0,36.0,30.35,SW,233,4.0,9.0,84,0.00,,,-99.99,,2013-04-07 09:54:00,
2013-04-07 06:04:00,40.0,36.0,30.35,SW,233,4.0,9.0,84,0.00,,,-99.99,,2013-04-07 10:04:00,
2013-04-07 06:14:00,40.0,36.0,30.35,SW,233,4.0,9.0,84,0.00,,,-99.99,,2013-04-07 10:14:00,
2013-04-07 06:23:00,39.0,35.0,30.35,West,269,4.0,7.0,86,0.00,,,-99.99,,2013-04-07 10:23:00,
2013-04-07 06:33:00,39.0,35.0,30.35,SSW,203,2.0,10.0,86,0.00,,,-99.99,,2013-04-07 10:33:00,
2013-04-07 06:43:00,39.0,35.0,30.35,SSW,203,2.0,10.0,86,0.00,,,-99.99,,2013-04-07 10:43:00,
2013-04-07 06:54:00,38.0,35.0,30.35,SSW,195,3.0,8.0,88,0.00,,,-99.99,,2013-04-07 10:54:00,
2013-04-07 07:03:00,38.0,35.0,30.35,SSW,195,3.0,8.0,88,0.00,,,-99.99,,2013-04-07 11:03:00,
2013-04-07 07:12:00,38.0,35.0,30.35,SSW,195,3.0,8.0,88,0.00,,,-99.99,,2013-04-07 11:12:00,
2013-04-07 07:23:00,37.0,34.0,30.36,SE,135,4.0,5.0,90,0.00,,,-99.99,,2013-04-07 11:23:00,
2013-04-07 07:33:00,36.0,34.0,30.36,SSE,165,2.0,4.0,92,0.00,,,-99.99,,2013-04-07 11:33:00,
2013-04-07 07:43:00,36.0,34.0,30.36,SSE,165,2.0,4.0,92,0.00,,,-99.99,,2013-04-07 11:43:00,
2013-04-07 07:53:00,36.0,34.0,30.36,SE,136,0.0,5.0,93,0.00,,,-99.99,,2013-04-07 11:53:00,
2013-04-07 08:02:00,37.0,35.0,30.37,SSW,203,1.0,4.0,93,0.00,,,-99.99,,2013-04-07 12:02:00,
2013-04-07 08:12:00,37.0,35.0,30.37,SSW,203,1.0,4.0,93,0.00,,,-99.99,,2013-04-07 12:12:00,
2013-04-07 08:23:00,38.0,36.0,30.38,SW,233,4.0,4.0,91,0.00,,,-99.99,,2013-04-07 12:23:00,
2013-04-07 08:34:00,38.0,35.0,30.38,South,172,2.0,3.0,90,0.00,,,-99.99,,2013-04-07 12:34:00,
2013-04-07 08:43:00,38.0,35.0,30.38,South,172,2.0,3.0,90,0.00,,,-99.99,,2013-04-07 12:43:00,
2013-04-07 08:54:00,40.0,36.0,30.39,SE,145,0.0,8.0,86,0.00,,,-99.99,,2013-04-07 12:54:00,
2013-04-07 09:04:00,40.0,36.0,30.39,SE,145,0.0,8.0,86,0.00,,,-99.99,,2013-04-07 13:04:00,
2013-04-07 09:13:00,40.0,36.0,30.39,SE,145,0.0,8.0,86,0.00,,,-99.99,,2013-04-07 13:13:00,
2013-04-07 09:23:00,42.0,38.0,30.39,West,262,4.0,8.0,84,0.00,,,-99.99,,2013-04-07 13:23:00,
2013-04-07 09:32:00,42.0,37.0,30.39,SW,225,3.0,6.0,83,0.00,,,-99.99,,2013-04-07 13:32:00,
2013-04-07 09:43:00,42.0,37.0,30.39,SW,225,3.0,6.0,83,0.00,,,-99.99,,2013-04-07 13:43:00,
2013-04-07 09:53:00,45.0,39.0,30.39,WNW,283,3.0,4.0,80,0.00,,,-99.99,,2013-04-07 13:53:00,
2013-04-07 10:02:00,46.0,39.0,30.40,WNW,290,6.0,6.0,77,0.00,,,-99.99,,2013-04-07 14:02:00,
2013-04-07 10:12:00,46.0,39.0,30.40,WNW,290,6.0,6.0,77,0.00,,,-99.99,,2013-04-07 14:12:00,
2013-04-07 10:23:00,47.0,40.0,30.39,WNW,288,4.0,7.0,76,0.00,,,-99.99,,2013-04-07 14:23:00,
2013-04-07 10:33:00,48.0,40.0,30.39,SSW,198,3.0,7.0,75,0.00,,,-99.99,,2013-04-07 14:33:00,
2013-04-07 10:43:00,48.0,40.0,30.39,SSW,198,3.0,7.0,75,0.00,,,-99.99,,2013-04-07 14:43:00,
2013-04-07 10:53:00,50.0,42.0,30.39,West,273,6.0,11.0,73,0.00,,,-99.99,,2013-04-07 14:53:00,
2013-04-07 11:03:00,50.0,42.0,30.39,West,273,6.0,11.0,73,0.00,,,-99.99,,2013-04-07 15:03:00,
2013-04-07 11:13:00,51.0,42.0,30.40,NNE,27,4.0,10.0,71,0.00,,,-99.99,,2013-04-07 15:13:00,
2013-04-07 11:22:00,51.0,42.0,30.40,NNE,27,4.0,10.0,71,0.00,,,-99.99,,2013-04-07 15:22:00,
2013-04-07 11:34:00,51.0,42.0,30.40,NNE,27,4.0,10.0,71,0.00,,,-99.99,,2013-04-07 15:34:00,
2013-04-07 11:45:00,51.0,42.0,30.40,NNE,27,4.0,10.0,71,0.00,,,-99.99,,2013-04-07 15:45:00,
2013-04-07 11:53:00,53.0,43.0,30.41,WSW,256,8.0,10.0,69,0.00,,,-99.99,,2013-04-07 15:53:00,
2013-04-07 12:05:00,54.0,43.0,30.40,NW,305,9.0,10.0,67,0.00,,,-99.99,,2013-04-07 16:05:00,
2013-04-07 12:14:00,54.0,43.0,30.40,NW,305,9.0,10.0,67,0.00,,,-99.99,,2013-04-07 16:14:00,
2013-04-07 12:25:00,53.0,42.0,30.40,West,264,5.0,11.0,67,0.00,,,-99.99,,2013-04-07 16:25:00,
2013-04-07 12:33:00,54.0,43.0,30.41,WSW,245,2.0,11.0,66,0.00,,,-99.99,,2013-04-07 16:33:00,
2013-04-07 12:43:00,54.0,43.0,30.41,WSW,245,2.0,11.0,66,0.00,,,-99.99,,2013-04-07 16:43:00,
2013-04-07 12:54:00,54.0,43.0,30.41,WSW,245,2.0,11.0,66,0.00,,,-99.99,,2013-04-07 16:54:00,
2013-04-07 13:04:00,54.0,43.0,30.40,WSW,239,7.0,8.0,66,0.00,,,-99.99,,2013-04-07 17:04:00,
2013-04-07 13:10:00,54.0,43.0,30.39,SW,218,3.0,11.0,67,0.00,,,-99.99,,2013-04-07 17:10:00,
2013-04-07 13:13:00,54.0,43.0,30.40,WSW,239,7.0,8.0,66,0.00,,,-99.99,,2013-04-07 17:13:00,
2013-04-07 13:24:00,55.0,43.0,30.39,WNW,294,1.0,9.0,64,0.00,,,-99.99,,2013-04-07 17:24:00,
2013-04-07 13:33:00,54.0,43.0,30.39,SW,218,3.0,11.0,67,0.00,,,-99.99,,2013-04-07 17:33:00,
2013-04-07 13:43:00,54.0,43.0,30.39,SW,218,3.0,11.0,67,0.00,,,-99.99,,2013-04-07 17:43:00,
2013-04-07 13:54:00,54.0,43.0,30.39,SW,218,3.0,11.0,67,0.00,,,-99.99,,2013-04-07 17:54:00,
2013-04-07 14:02:00,54.0,43.0,30.39,SW,218,3.0,11.0,67,0.00,,,-99.99,,2013-04-07 18:02:00,
2013-04-07 14:23:00,57.0,44.0,30.37,WNW,284,3.0,13.0,61,0.00,,,-99.99,,2013-04-07 18:23:00,
2013-04-07 14:33:00,57.0,44.0,30.37,WSW,252,4.0,10.0,62,0.00,,,-99.99,,2013-04-07 18:33:00,
2013-04-07 14:44:00,57.0,44.0,30.37,WSW,252,4.0,10.0,62,0.00,,,-99.99,,2013-04-07 18:44:00,
2013-04-07 14:53:00,58.0,44.0,30.36,WNW,287,4.0,9.0,60,0.00,,,-99.99,,2013-04-07 18:53:00,
2013-04-07 15:03:00,57.0,44.0,30.36,WNW,298,8.0,11.0,62,0.00,,,-99.99,,2013-04-07 19:03:00,
2013-04-07 15:12:00,57.0,44.0,30.36,WNW,298,8.0,11.0,62,0.00,,,-99.99,,2013-04-07 19:12:00,
2013-04-07 15:22:00,58.0,44.0,30.35,NW,304,10.0,13.0,60,0.00,,,-99.99,,2013-04-07 19:22:00,
2013-04-07 15:32:00,58.0,44.0,30.35,NW,304,10.0,13.0,60,0.00,,,-99.99,,2013-04-07 19:32:00,
2013-04-07 15:42:00,58.0,44.0,30.35,NW,304,10.0,13.0,60,0.00,,,-99.99,,2013-04-07 19:42:00,
2013-04-07 15:53:00,58.0,44.0,30.34,SW,219,7.0,10.0,59,0.00,,,-99.99,,2013-04-07 19:53:00,
2013-04-07 16:03:00,58.0,44.0,30.34,South,173,7.0,8.0,59,0.00,,,-99.99,,2013-04-07 20:03:00,
2013-04-07 16:13:00,58.0,44.0,30.34,South,173,7.0,8.0,59,0.00,,,-99.99,,2013-04-07 20:13:00,
2013-04-07 16:22:00,58.0,45.0,30.34,NNW,333,1.0,8.0,61,0.00,,,-99.99,,2013-04-07 20:22:00,
2013-04-07 16:33:00,58.0,45.0,30.34,NW,308,3.0,6.0,63,0.00,,,-99.99,,2013-04-07 20:33:00,
2013-04-07 16:40:00,57.0,46.0,30.34,WNW,291,6.0,10.0,66,0.00,,,-99.99,,2013-04-07 20:40:00,
2013-04-07 16:43:00,58.0,45.0,30.34,NW,308,3.0,6.0,63,0.00,,,-99.99,,2013-04-07 20:43:00,
2013-04-07 17:03:00,57.0,46.0,30.34,WNW,291,6.0,10.0,66,0.00,,,-99.99,,2013-04-07 21:03:00,
2013-04-07 17:13:00,57.0,46.0,30.34,WNW,291,6.0,10.0,66,0.00,,,-99.99,,2013-04-07 21:13:00,
2013-04-07 17:22:00,57.0,46.0,30.34,WNW,291,6.0,10.0,66,0.00,,,-99.99,,2013-04-07 21:22:00,
2013-04-07 17:34:00,57.0,46.0,30.34,WNW,291,6.0,10.0,66,0.00,,,-99.99,,2013-04-07 21:34:00,
2013-04-07 17:40:00,55.0,46.0,30.35,SSW,210,4.0,12.0,71,0.00,,,-99.99,,2013-04-07 21:40:00,
2013-04-07 17:55:00,55.0,45.0,30.34,West,274,5.0,11.0,70,0.00,,,-99.99,,2013-04-07 21:55:00,
2013-04-07 18:05:00,55.0,46.0,30.35,SSW,210,4.0,12.0,71,0.00,,,-99.99,,2013-04-07 22:05:00,
2013-04-07 18:15:00,55.0,46.0,30.35,SSW,210,4.0,12.0,71,0.00,,,-99.99,,2013-04-07 22:15:00,
2013-04-07 18:20:00,54.0,46.0,30.35,SW,229,2.0,9.0,73,0.00,,,-99.99,,2013-04-07 22:20:00,
2013-04-07 18:23:00,55.0,46.0,30.35,SSW,210,4.0,12.0,71,0.00,,,-99.99,,2013-04-07 22:23:00,
2013-04-07 18:34:00,55.0,46.0,30.35,SSW,210,4.0,12.0,71,0.00,,,-99.99,,2013-04-07 22:34:00,
2013-04-07 18:54:00,54.0,46.0,30.35,SW,229,2.0,9.0,73,0.00,,,-99.99,,2013-04-07 22:54:00,
2013-04-07 19:04:00,54.0,46.0,30.35,SW,229,2.0,9.0,73,0.00,,,-99.99,,2013-04-07 23:04:00,
2013-04-07 19:13:00,54.0,46.0,30.35,SW,229,2.0,9.0,73,0.00,,,-99.99,,2013-04-07 23:13:00,
2013-04-07 19:53:00,51.0,44.0,30.35,West,263,4.0,10.0,78,0.00,,,-99.99,,2013-04-07 23:53:00,
2013-04-07 20:03:00,51.0,44.0,30.35,West,263,4.0,10.0,78,0.00,,,-99.99,,2013-04-08 00:03:00,
2013-04-07 20:10:00,49.0,43.0,30.36,SSW,203,3.0,5.0,81,0.00,,,-99.99,,2013-04-08 00:10:00,
2013-04-07 20:13:00,51.0,44.0,30.35,West,263,4.0,10.0,78,0.00,,,-99.99,,2013-04-08 00:13:00,
2013-04-07 20:22:00,50.0,44.0,30.36,SW,215,8.0,8.0,80,0.00,,,-99.99,,2013-04-08 00:22:00,
2013-04-07 20:33:00,49.0,43.0,30.36,SSW,203,3.0,5.0,81,0.00,,,-99.99,,2013-04-08 00:33:00,
2013-04-07 20:42:00,49.0,43.0,30.36,SSW,203,3.0,5.0,81,0.00,,,-99.99,,2013-04-08 00:42:00,
2013-04-07 20:50:00,48.0,43.0,30.36,South,179,1.0,4.0,82,0.00,,,-99.99,,2013-04-08 00:50:00,
2013-04-07 20:52:00,49.0,43.0,30.36,SSW,203,3.0,5.0,81,0.00,,,-99.99,,2013-04-08 00:52:00,
2013-04-07 21:03:00,49.0,43.0,30.36,SSW,203,3.0,5.0,81,0.00,,,-99.99,,2013-04-08 01:03:00,
2013-04-07 21:23:00,48.0,43.0,30.36,South,179,1.0,4.0,82,0.00,,,-99.99,,2013-04-08 01:23:00,
2013-04-07 21:34:00,48.0,43.0,30.36,South,179,1.0,4.0,82,0.00,,,-99.99,,2013-04-08 01:34:00,
2013-04-07 21:44:00,48.0,43.0,30.36,South,179,1.0,4.0,82,0.00,,,-99.99,,2013-04-08 01:44:00,
2013-04-07 22:33:00,47.0,42.0,30.37,West,270,3.0,8.0,84,0.00,,,-99.99,,2013-04-08 02:33:00,
2013-04-07 22:55:00,47.0,43.0,30.37,West,273,5.0,6.0,85,0.00,,,-99.99,,2013-04-08 02:55:00,
2013-04-07 23:08:00,47.0,43.0,30.37,West,273,5.0,6.0,85,0.00,,,-99.99,,2013-04-08 03:08:00,
2013-04-07 23:15:00,47.0,43.0,30.37,West,273,5.0,6.0,85,0.00,,,-99.99,,2013-04-08 03:15:00,
2013-04-07 23:25:00,47.0,43.0,30.36,West,270,6.0,7.0,86,0.00,,,-99.99,,2013-04-08 03:25:00,
2013-04-07 23:34:00,47.0,43.0,30.36,SW,228,7.0,7.0,86,0.00,,,-99.99,,2013-04-08 03:34:00,
2013-04-07 23:48:00,47.0,43.0,30.36,SW,228,7.0,7.0,86,0.00,,,-99.99,,2013-04-08 03:48:00,
2013-04-07 23:58:00,46.0,42.0,30.36,WSW,257,4.0,8.0,87,0.00,,,-99.99,,2013-04-08 03:58:00,